Pineville, WV

8:34 AM EDT on April 25, 2017 (GMT -0400)
Pineville

Weather History for KI16 - May, 2013

Change the Weather History Date:

Thursday, May 16, 2013

  Actual Average (KBKW) Record (KBKW)
Temperature  
Mean Temperature 66 °F -  
Max Temperature 80 °F 69 °F 85 °F (1911)
Min Temperature 51 °F 49 °F 30 °F (1984)
Growing Degree Days 16 (Base 50)    
Moisture  
Dew Point 58 °F    
Average Humidity 81    
Maximum Humidity 100    
Minimum Humidity 49    
Precipitation  
Precipitation 0.00 in - - ()
Sea Level Pressure  
Sea Level Pressure 30.07 in    
Wind  
Wind Speed - (North)    
Max Wind Speed -    
Max Gust Speed -    
Visibility 9 miles    
Events Rain    
Averages and records for this station are not official NWS values.
T = Trace of Precipitation, MM = Missing Value Source: NWS Daily Summary

Daily Weather History Graph

Daily Weather History Graph

Search for Another Location

Airport or City:

Trip Planner

Search our weather history database for the weather conditions in past years. The results will help you decide how hot, cold, wet, or windy it might be!

Date:

Astronomy

May. 16, 2013 Rise Set
Actual Time 6:15 AM EDT 8:29 PM EDT
Civil Twilight 5:46 AM EDT 8:59 PM EDT
Nautical Twilight 5:10 AM EDT 9:35 PM EDT
Astronomical Twilight 4:31 AM EDT 10:15 PM EDT
Moon 11:45 AM EDT (5/16) 12:51 AM EDT (5/16)
Length of Visible Light 15h 13m
Length of Day
14h 14m
Waxing Crescent, 35% of the Moon is Illuminated
May 16
Waxing Crescent
May 18
First Quarter
May 25
Full
May 31
Last Quarter
Jun 8
New

Hourly Weather History & Observations

Time (EDT) Temp. Heat Index Dew Point Humidity Pressure Visibility Wind Dir Wind Speed Gust Speed Precip Events Conditions
12:15 AM 58.1 °F - 55.2 °F 90% 30.05 in 10.0 mi North - - N/A   Clear
12:35 AM 57.4 °F - 54.9 °F 91% 30.05 in 10.0 mi North - - N/A   Clear
12:55 AM 57.2 °F - 55.0 °F 92% 30.04 in 10.0 mi North - - N/A   Clear
1:15 AM 56.7 °F - 54.9 °F 94% 30.04 in 10.0 mi North - - N/A   Clear
1:35 AM 56.1 °F - 54.5 °F 94% 30.04 in 10.0 mi North - - N/A   Clear
1:55 AM 55.4 °F - 54.3 °F 96% 30.04 in 10.0 mi North - - N/A   Clear
2:15 AM 55.4 °F - 54.1 °F 96% 30.04 in 10.0 mi North - - N/A   Clear
2:35 AM 55.0 °F - 54.1 °F 97% 30.04 in 10.0 mi North - - N/A   Clear
2:55 AM 54.5 °F - 53.8 °F 97% 30.04 in 10.0 mi North - - N/A   Clear
3:15 AM 54.5 °F - 54.1 °F 99% 30.03 in 10.0 mi North - - N/A   Clear
3:35 AM 53.6 °F - 53.6 °F 100% 30.04 in 10.0 mi North - - N/A   Clear
3:55 AM 53.6 °F - 53.6 °F 100% 30.05 in 10.0 mi North - - N/A   Clear
4:15 AM 53.4 °F - 53.4 °F 100% 30.05 in 10.0 mi North - - N/A   Clear
4:35 AM 52.9 °F - 52.9 °F 100% 30.04 in 10.0 mi North - - N/A   Clear
4:55 AM 52.9 °F - 52.9 °F 100% 30.04 in 10.0 mi North - - N/A   Clear
5:15 AM 52.7 °F - 52.7 °F 100% 30.04 in 7.0 mi North - - N/A   Clear
5:35 AM 52.2 °F - 52.2 °F 100% 30.04 in 7.0 mi North - - N/A   Clear
5:55 AM 52.2 °F - 52.2 °F 100% 30.05 in 7.0 mi North - - N/A   Clear
6:15 AM 51.8 °F - 51.8 °F 100% 30.05 in 10.0 mi North - - N/A   Clear
6:35 AM 51.8 °F - 51.8 °F 100% 30.05 in 10.0 mi North - - N/A   Clear
6:55 AM 52.5 °F - 52.5 °F 100% 30.06 in 10.0 mi North - - N/A   Clear
7:15 AM 53.1 °F - 53.1 °F 100% 30.08 in 7.0 mi North - - N/A   Clear
7:35 AM 54.0 °F - 54.0 °F 100% 30.08 in 10.0 mi North - - N/A   Clear
7:55 AM 55.6 °F - 55.6 °F 100% 30.08 in 10.0 mi North - - N/A   Clear
8:15 AM 57.6 °F - 57.2 °F 99% 30.08 in 10.0 mi North - - N/A   Clear
8:35 AM 61.9 °F - 59.2 °F 91% 30.08 in 10.0 mi North - - N/A   Scattered Clouds
8:55 AM 66.2 °F - 59.7 °F 80% 30.08 in 10.0 mi North - - N/A   Clear
9:15 AM 69.1 °F - 59.7 °F 72% 30.08 in 10.0 mi North - - N/A   Clear
9:35 AM 72.5 °F - 58.3 °F 61% 30.08 in 10.0 mi North - - N/A   Clear
9:55 AM 73.4 °F - 58.1 °F 59% 30.08 in 10.0 mi North - - N/A   Clear
10:15 AM 74.3 °F - 58.6 °F 58% 30.08 in 10.0 mi North - - N/A   Clear
10:55 AM 76.1 °F - 58.3 °F 54% 30.08 in 10.0 mi North - - N/A   Clear
11:15 AM 76.1 °F - 59.0 °F 55% 30.08 in 10.0 mi North - - N/A   Clear
11:35 AM 76.5 °F - 59.2 °F 55% 30.08 in 10.0 mi North - - N/A   Clear
11:55 AM 76.6 °F - 59.9 °F 56% 30.08 in 10.0 mi North - - N/A   Scattered Clouds
12:15 PM 77.7 °F - 59.2 °F 53% 30.08 in 10.0 mi North - - N/A   Scattered Clouds
12:35 PM 77.7 °F - 59.0 °F 52% 30.08 in 10.0 mi North - - N/A   Scattered Clouds
12:55 PM 77.9 °F - 58.5 °F 51% 30.08 in 10.0 mi North - - N/A   Mostly Cloudy
1:15 PM 77.4 °F - 59.2 °F 53% 30.08 in 10.0 mi North - - N/A   Scattered Clouds
1:35 PM 77.0 °F - 59.9 °F 55% 30.07 in 10.0 mi North - - N/A   Clear
2:15 PM 77.9 °F - 59.9 °F 54% 30.06 in 10.0 mi North - - N/A   Clear
2:35 PM 79.3 °F - 59.7 °F 51% 30.05 in 10.0 mi North - - N/A   Clear
3:15 PM 80.8 °F 81.4 °F 59.9 °F 49% 30.04 in 10.0 mi North - - N/A   Clear
3:55 PM 80.1 °F 80.8 °F 59.5 °F 49% 30.04 in 10.0 mi North - - N/A   Scattered Clouds
4:15 PM 78.8 °F - 59.7 °F 52% 30.05 in 10.0 mi North - - N/A   Clear
4:35 PM 78.8 °F - 59.5 °F 52% 30.05 in 10.0 mi North - - N/A   Clear
4:55 PM 78.3 °F - 60.4 °F 54% 30.05 in 10.0 mi North - - N/A   Mostly Cloudy
5:15 PM 77.0 °F - 59.7 °F 55% 30.05 in 10.0 mi North - - N/A   Overcast
5:35 PM 76.8 °F - 59.5 °F 55% 30.05 in 10.0 mi North - - N/A   Overcast
6:15 PM 76.3 °F - 59.0 °F 55% 30.06 in 10.0 mi North - - N/A   Overcast
6:35 PM 75.4 °F - 59.4 °F 57% 30.08 in 10.0 mi North - - N/A   Overcast
6:55 PM 71.6 °F - 61.5 °F 70% 30.11 in 7.0 mi North - - N/A Rain Heavy Rain
7:15 PM 65.3 °F - 63.5 °F 94% 30.11 in 7.0 mi North - - N/A Rain Light Rain
7:35 PM 64.4 °F - 64.0 °F 99% 30.11 in 3.0 mi North - - N/A Rain Light Rain
7:55 PM 63.9 °F - 63.9 °F 100% 30.11 in 5.0 mi North - - N/A Rain Light Rain
8:15 PM 63.5 °F - 63.5 °F 100% 30.10 in 7.0 mi North - - N/A Rain Light Rain
8:35 PM 63.5 °F - 63.5 °F 100% 30.09 in 7.0 mi North - - N/A   Mostly Cloudy
8:55 PM 63.3 °F - 63.3 °F 100% 30.10 in 5.0 mi North - - N/A   Scattered Clouds
9:15 PM 62.6 °F - 62.6 °F 100% 30.10 in 3.0 mi North - - N/A   Scattered Clouds
9:35 PM 62.4 °F - 62.4 °F 100% 30.10 in 3.0 mi North - - N/A   Mostly Cloudy
9:55 PM 62.2 °F - 62.2 °F 100% 30.10 in 4.0 mi North - - N/A   Scattered Clouds
10:15 PM 61.9 °F - 61.9 °F 100% 30.10 in 2.5 mi North - - N/A   Scattered Clouds
10:35 PM 61.7 °F - 61.7 °F 100% 30.11 in 2.5 mi North - - N/A   Mostly Cloudy
10:55 PM 62.1 °F - 62.1 °F 100% 30.11 in 3.0 mi North - - N/A   Mostly Cloudy
11:15 PM 61.7 °F - 61.7 °F 100% 30.12 in 3.0 mi North - - N/A   Mostly Cloudy